Tracking 31027 objects as of 19-Jul-2025
HD Live streaming from Space Station
objects crossing your sky now

COSMOS 2491 DEB

Track COSMOS 2491 DEB now!
10-day predictions


NORAD ID: 57568
Int'l Code: 2013-076BF
Perigee: 1,317.1 km
Apogee: 1,499.4 km
Inclination: 82.5 °
Period: 113.8 minutes
Semi major axis: 7779 km
RCS: Unknown
Launch date: December 25, 2013
Source: Commonwealth of Independent States (former USSR) (CIS)
Launch site: PLESETSK MISSILE AND SPACE COMPLEX (PKMTR)

Note: This is SATELLITE DEBRIS
Your satellite tracking list
STARLINK-1578
Track 1 satellite(s)




NASA's NSSDC Master Catalog

Two Line Element Set (TLE):
1 57568U 13076BF  25186.14894569  .00001070  00000-0  55473-2 0  9990
2 57568  82.4676 344.4629 0117132 264.0796  94.6936 12.65306428 99368
Source of the keplerian elements: AFSPC